H1 CPF 2 NER 2024 1 29 9 029 01 glonass128 H2 1106401 9128 37867 2024 1 29 0 0 0 2024 2 1 23 45 0 900 1 1 0 0 0 1 H9 10 0 60338 0.00000 0 22579644.586 -5075785.084 10845586.754 10 0 60338 900.00000 0 21184608.672 -4514576.686 13572032.423 10 0 60338 1800.00000 0 19562486.865 -3687223.633 16036478.893 10 0 60338 2700.00000 0 17773618.325 -2580293.948 18191428.037 10 0 60338 3600.00000 0 15881743.137 -1192695.186 19995334.684 10 0 60338 4500.00000 0 13951413.124 464026.708 21413388.829 10 0 60338 5400.00000 0 12045389.030 2365915.032 22418173.090 10 0 60338 6300.00000 0 10222129.876 4477348.399 22990184.289 10 0 60338 7200.00000 0 8533476.513 6752276.388 23118210.077 10 0 60338 8100.00000 0 7022623.554 9135896.302 22799553.699 10 0 60338 9000.00000 0 5722462.461 11566704.755 22040102.144 10 0 60338 9900.00000 0 4654363.927 13978842.361 20854235.226 10 0 60338 10800.00000 0 3827450.176 16304637.494 19264575.556 10 0 60338 11700.00000 0 3238388.267 18477246.273 17301581.865 10 0 60338 12600.00000 0 2871714.403 20433281.034 15002990.906 10 0 60338 13500.00000 0 2700677.419 22115318.940 12413115.932 10 0 60338 14400.00000 0 2688568.007 23474186.177 9582012.695 10 0 60338 15300.00000 0 2790479.553 24470921.329 6564526.918 10 0 60338 16200.00000 0 2955427.689 25078333.917 3419240.075 10 0 60338 17100.00000 0 3128739.713 25282090.298 207333.028 10 0 60338 18000.00000 0 3254612.577 25081278.548 -3008610.412 10 0 60338 18900.00000 0 3278729.937 24488425.820 -6165835.987 10 0 60338 19800.00000 0 3150825.334 23528965.117 -9202662.111 10 0 60338 20700.00000 0 2827080.034 22240172.206 -12059707.267 10 0 60338 21600.00000 0 2272250.654 20669616.612 -14681075.371 10 0 60338 22500.00000 0 1461432.993 18873192.013 -17015473.406 10 0 60338 23400.00000 0 381384.116 16912809.886 -19017237.040 10 0 60338 24300.00000 0 -968656.027 14853855.128 -20647242.057 10 0 60338 25200.00000 0 -2576680.366 12762512.684 -21873682.130 10 0 60338 26100.00000 0 -4418181.148 10703079.724 -22672696.633 10 0 60338 27000.00000 0 -6456956.384 8735378.187 -23028835.804 10 0 60338 27900.00000 0 -8646422.137 6912377.667 -22935354.309 10 0 60338 28800.00000 0 -10931374.612 5278129.021 -22394328.257 10 0 60338 29700.00000 0 -13250126.857 3866095.055 -21416594.581 10 0 60338 30600.00000 0 -15536929.055 2697946.992 -20021515.555 10 0 60338 31500.00000 0 -17724569.653 1782875.078 -18236574.890 10 0 60338 32400.00000 0 -19747047.419 1117439.261 -16096815.214 10 0 60338 33300.00000 0 -21542202.098 685962.754 -13644129.850 10 0 60338 34200.00000 0 -23054193.718 461448.245 -10926424.535 10 0 60338 35100.00000 0 -24235727.645 406974.532 -7996667.050 10 0 60338 36000.00000 0 -25049933.832 477511.493 -4911844.575 10 0 60338 36900.00000 0 -25471823.684 622074.228 -1731850.051 10 0 60338 37800.00000 0 -25489266.100 786123.603 1481680.247 10 0 60338 38700.00000 0 -25103444.532 914110.966 4666555.336 10 0 60338 39600.00000 0 -24328778.525 952059.492 7761221.659 10 0 60338 40500.00000 0 -23192315.341 850073.973 10705936.579 10 0 60338 41400.00000 0 -21732618.750 564674.470 13443901.938 10 0 60338 42300.00000 0 -19998202.412 60857.119 15922337.494 10 0 60338 43200.00000 0 -18045573.293 -686202.946 18093475.594 10 0 60338 44100.00000 0 -15936965.950 -1689876.777 19915460.100 10 0 60338 45000.00000 0 -13737860.467 -2951287.516 21353134.378 10 0 60338 45900.00000 0 -11514385.166 -4459030.208 22378705.134 10 0 60338 46800.00000 0 -9330709.446 -6189418.079 22972270.890 10 0 60338 47700.00000 0 -7246532.446 -8107246.684 23122205.927 10 0 60338 48600.00000 0 -5314769.278 -10167046.586 22825392.655 10 0 60338 49500.00000 0 -3579528.869 -12314775.572 22087297.568 10 0 60338 50400.00000 0 -2074466.034 -14489883.405 20921888.188 10 0 60338 51300.00000 0 -821575.651 -16627666.665 19351390.829 10 0 60338 52200.00000 0 169520.701 -18661818.845 17405891.536 10 0 60338 53100.00000 0 901765.007 -20527071.909 15122785.243 10 0 60338 54000.00000 0 1390320.598 -22161820.831 12546081.059 10 0 60338 54900.00000 0 1661710.051 -23510622.046 9725574.446 10 0 60338 55800.00000 0 1752467.658 -24526460.818 6715900.122 10 0 60338 56700.00000 0 1707361.663 -25172691.018 3575482.372 10 0 60338 57600.00000 0 1577260.334 -25424563.595 365402.202 10 0 60338 58500.00000 0 1416731.838 -25270276.673 -2851796.725 10 0 60338 59400.00000 0 1281480.198 -24711500.066 -6013339.430 10 0 60338 60300.00000 0 1225727.521 -23763349.274 -9057462.852 10 0 60338 61200.00000 0 1299655.840 -22453807.721 -11924644.648 10 0 60338 62100.00000 0 1547019.986 -20822619.966 -14558791.234 10 0 60338 63000.00000 0 2003035.907 -18919701.807 -16908359.312 10 0 60338 63900.00000 0 2692637.192 -16803134.454 -18927386.525 10 0 60338 64800.00000 0 3629176.508 -14536828.163 -20576408.940 10 0 60338 65700.00000 0 4813629.302 -12187955.188 -21823245.767 10 0 60338 66600.00000 0 6234335.016 -9824261.800 -22643634.842 10 0 60338 67500.00000 0 7867287.592 -7511374.075 -23021705.992 10 0 60338 68400.00000 0 9676963.049 -5310212.004 -22950283.184 10 0 60338 69300.00000 0 11617648.627 -3274621.222 -22431010.254 10 0 60338 70200.00000 0 13635216.424 -1449321.685 -21474298.981 10 0 60338 71100.00000 0 15669265.533 131741.636 -20099102.048 10 0 60338 72000.00000 0 17655541.215 1446578.711 -18332517.187 10 0 60338 72900.00000 0 19528528.275 2485818.289 -16209232.113 10 0 60338 73800.00000 0 21224108.933 3252831.084 -13770823.067 10 0 60338 74700.00000 0 22682173.388 3763310.885 -11064922.453 10 0 60338 75600.00000 0 23849073.910 4044335.078 -8144273.481 10 0 60338 76500.00000 0 24679820.581 4132947.787 -5065691.529 10 0 60338 77400.00000 0 25139928.247 4074328.485 -1888953.481 10 0 60338 78300.00000 0 25206839.334 3919625.783 1324362.823 10 0 60338 79200.00000 0 24870865.343 3723549.348 4512066.406 10 0 60338 80100.00000 0 24135609.964 3541822.244 7612545.592 10 0 60338 81000.00000 0 23017858.357 3428600.956 10565942.863 10 0 60338 81900.00000 0 21546938.975 3433970.930 13315290.806 10 0 60338 82800.00000 0 19763585.718 3601621.708 15807588.906 10 0 60338 83700.00000 0 17718348.203 3966797.763 17994802.461 10 0 60338 84600.00000 0 15469615.866 4554609.534 19834766.563 10 0 60338 85500.00000 0 13081336.793 5378774.272 21291979.836 10 0 60339 0.00000 0 10620524.279 6440838.684 22338274.578 10 0 60339 900.00000 0 8154650.752 7729916.676 22953352.442 10 0 60339 1800.00000 0 5749037.739 9222952.723 23125175.094 10 0 60339 2700.00000 0 3464342.960 10885503.672 22850204.579 10 0 60339 3600.00000 0 1354249.580 12673007.709 22133486.932 10 0 60339 4500.00000 0 -536549.705 14532491.265 20988576.958 10 0 60339 5400.00000 0 -2173990.994 16404646.077 19437303.810 10 0 60339 6300.00000 0 -3535832.216 18226193.061 17509379.544 10 0 60339 7200.00000 0 -4612350.738 19932437.207 15241855.595 10 0 60339 8100.00000 0 -5406515.372 21459908.854 12678434.912 10 0 60339 9000.00000 0 -5933624.068 22748981.965 9868650.375 10 0 60339 9900.00000 0 -6220420.716 23746359.755 6866923.175 10 0 60339 10800.00000 0 -6303726.583 24407322.313 3731517.706 10 0 60339 11700.00000 0 -6228642.798 24697639.793 523412.276 10 0 60339 12600.00000 0 -6046399.136 24595067.917 -2694892.531 10 0 60339 13500.00000 0 -5811940.317 24090359.717 -5860603.979 10 0 60339 14400.00000 0 -5581353.030 23187747.668 -8911880.458 10 0 60339 15300.00000 0 -5409244.652 21904873.038 -11789061.619 10 0 60339 16200.00000 0 -5346187.316 20272163.145 -14435859.029 10 0 60339 17100.00000 0 -5436338.700 18331681.313 -16800481.550 10 0 60339 18000.00000 0 -5715343.477 16135497.422 -18836670.994 10 0 60339 18900.00000 0 -6208607.288 13743647.938 -20504625.647 10 0 60339 19800.00000 0 -6930018.802 11221772.259 -21771791.925 10 0 60339 20700.00000 0 -7881175.745 8638526.187 -22613507.497 10 0 60339 21600.00000 0 -9051148.653 6062882.826 -23013482.841 10 0 60339 22500.00000 0 -10416792.576 3561435.590 -22964111.921 10 0 60339 23400.00000 0 -11943593.056 1195817.530 -22466606.589 10 0 60339 24300.00000 0 -13587009.614 -979654.554 -21530953.298 10 0 60339 25200.00000 0 -15294258.677 -2920012.993 -20175694.504 10 0 60339 26100.00000 0 -17006459.217 -4591265.352 -18427540.832 10 0 60339 27000.00000 0 -18661049.263 -5971547.891 -16320823.532 10 0 60339 27900.00000 0 -20194370.394 -7051761.139 -13896799.820 10 0 60339 28800.00000 0 -21544310.759 -7835664.440 -11202826.534 10 0 60339 29700.00000 0 -22652895.352 -8339429.486 -8291419.850 10 0 60339 30600.00000 0 -23468715.220 -8590675.437 -5219220.728 10 0 60339 31500.00000 0 -23949094.617 -8627029.833 -2045887.270 10 0 60339 32400.00000 0 -24061906.822 -8494278.887 1167063.909 10 0 60339 33300.00000 0 -23786964.427 -8244187.319 4357444.688 10 0 60339 34200.00000 0 -23116927.985 -7932080.914 7463588.144 10 0 60339 35100.00000 0 -22057697.081 -7614294.071 10425524.740 10 0 60339 36000.00000 0 -20628269.216 -7345589.401 13186120.612 10 0 60339 36900.00000 0 -18860073.675 -7176656.833 15692157.641 10 0 60339 37800.00000 0 -16795808.660 -7151795.807 17895336.546 10 0 60339 38700.00000 0 -14487829.844 -7306876.161 19753185.820 10 0 60339 39600.00000 0 -11996156.269 -7667661.633 21229861.173 10 0 60339 40500.00000 0 -9386174.531 -8248565.057 22296822.048 10 0 60339 41400.00000 0 -6726134.016 -9051886.824 22933373.826 10 0 60339 42300.00000 0 -4084534.191 -10067568.773 23127066.321 10 0 60339 43200.00000 0 -1527509.255 -11273475.001 22873941.336 10 0 60339 44100.00000 0 883684.324 -12636189.906 22178624.178 10 0 60339 45000.00000 0 3094975.523 -14112302.900 21054256.339 10 0 60339 45900.00000 0 5061487.713 -15650129.279 19522268.888 10 0 60339 46800.00000 0 6749166.304 -17191798.668 17611998.684 10 0 60339 47700.00000 0 8135957.387 -18675626.745 15360152.174 10 0 60339 48600.00000 0 9212487.529 -20038673.436 12810124.379 10 0 60339 49500.00000 0 9982215.040 -21219382.043 10011183.565 10 0 60339 50400.00000 0 10461044.661 -22160189.099 7017535.127 10 0 60339 51300.00000 0 10676420.114 -22809994.792 3887281.096 10 0 60339 52200.00000 0 10665931.204 -23126388.416 681294.459 10 0 60339 53100.00000 0 10475493.166 -23077532.654 -2537969.988 10 0 60339 54000.00000 0 10157174.898 -22643624.171 -5707704.499 10 0 60339 54900.00000 0 9766768.456 -21817865.562 -8765991.645 10 0 60339 55800.00000 0 9361204.161 -20606904.376 -11653035.755 10 0 60339 56700.00000 0 8995922.910 -19030717.878 -14312356.141 10 0 60339 57600.00000 0 8722319.768 -17121946.238 -16691916.285 10 0 60339 58500.00000 0 8585370.069 -14924700.989 -18745164.450 10 0 60339 59400.00000 0 8621541.491 -12492898.517 -20431963.173 10 0 60339 60300.00000 0 8857083.063 -9888189.108 -21719387.791 10 0 60339 61200.00000 0 9306765.460 -7177569.647 -22582377.166 10 0 60339 62100.00000 0 9973127.082 -4430781.592 -23004223.394 10 0 60339 63000.00000 0 10846258.158 -1717604.805 -22976890.995 10 0 60339 63900.00000 0 11904131.590 894838.082 -22501160.007 10 0 60339 64800.00000 0 13113465.487 3344653.203 -21586591.371 10 0 60339 65700.00000 0 14431079.419 5577515.258 -20251316.776 10 0 60339 66600.00000 0 15805685.334 7548678.505 -18521658.893 10 0 60339 67500.00000 0 17180035.777 9224576.531 -16431591.332 10 0 60339 68400.00000 0 18493337.196 10583946.422 -14022050.804 10 0 60339 69300.00000 0 19683825.397 11618433.470 -11340116.767 10 0 60339 70200.00000 0 20691393.981 12332654.832 -8438076.235 10 0 60339 71100.00000 0 21460165.030 12743723.375 -5372393.327 10 0 60339 72000.00000 0 21940894.459 12880255.510 -2202604.693 10 0 60339 72900.00000 0 22093112.061 12780908.155 1009837.125 10 0 60339 73800.00000 0 21886907.954 12492509.089 4202749.797 10 0 60339 74700.00000 0 21304292.343 12067861.309 7314414.087 10 0 60339 75600.00000 0 20340073.530 11563314.758 10284751.302 10 0 60339 76500.00000 0 19002219.155 11036207.648 13056463.842 10 0 60339 77400.00000 0 17311686.871 10542284.205 15576118.535 10 0 60339 78300.00000 0 15301732.217 10133195.935 17795153.852 10 0 60339 79200.00000 0 13016722.416 9854189.530 19670793.813 10 0 60339 80100.00000 0 10510504.584 9742076.519 21166853.090 10 0 60339 81000.00000 0 7844394.388 9823568.069 22254419.816 10 0 60339 81900.00000 0 5084866.241 10114043.505 22912404.612 10 0 60339 82800.00000 0 2301037.877 10616803.609 23127946.311 10 0 60339 83700.00000 0 -437949.574 11322840.335 22896667.057 10 0 60339 84600.00000 0 -3065550.630 12211133.880 22222771.585 10 0 60339 85500.00000 0 -5520327.784 13249466.758 21118987.735 10 0 60340 0.00000 0 -7748254.956 14395723.493 19606347.829 10 0 60340 900.00000 0 -9704718.989 15599625.187 17713811.965 10 0 60340 1800.00000 0 -11356133.566 16804827.859 15477739.999 10 0 60340 2700.00000 0 -12681101.967 17951301.307 12941216.951 10 0 60340 3600.00000 0 -13671076.039 18977889.200 10153244.123 10 0 60340 4500.00000 0 -14330483.444 19824944.459 7167808.562 10 0 60340 5400.00000 0 -14676315.811 20436929.003 4042847.251 10 0 60340 6300.00000 0 -14737193.327 20764867.218 839125.088 10 0 60340 7200.00000 0 -14551943.737 20768547.605 -2380951.740 10 0 60340 8100.00000 0 -14167754.933 20418376.823 -5554563.301 10 0 60340 9000.00000 0 -13637979.168 19696804.481 -8619719.149 10 0 60340 9900.00000 0 -13019682.643 18599255.041 -11516491.010 10 0 60340 10800.00000 0 -12371045.837 17134524.238 -14188208.526 10 0 60340 11700.00000 0 -11748726.936 15324620.557 -16582592.195 10 0 60340 12600.00000 0 -11205302.733 13204056.517 -18652798.884 10 0 60340 13500.00000 0 -10786898.086 10818618.525 -20358357.277 10 0 60340 14400.00000 0 -10531106.846 8223666.829 -21665973.237 10 0 60340 15300.00000 0 -10465294.276 5482037.601 -22550188.125 10 0 60340 16200.00000 0 -10605354.099 2661636.276 -22993876.629 10 0 60340 17100.00000 0 -10954973.251 -167175.583 -22988574.455 10 0 60340 18000.00000 0 -11505435.094 -2934289.080 -22534630.078 10 0 60340 18900.00000 0 -12235968.320 -5572538.071 -21641178.761 10 0 60340 19800.00000 0 -13114625.154 -8020257.563 -20325940.841 10 0 60340 20700.00000 0 -14099649.691 -10223603.731 -18614850.020 10 0 60340 21600.00000 0 -15141276.417 -12138539.695 -16541520.862 10 0 60340 22500.00000 0 -16183880.909 -13732406.015 -14146567.811 10 0 60340 23400.00000 0 -17168390.191 -14985012.942 -11476790.901 10 0 60340 24300.00000 0 -18034849.783 -15889212.065 -8584245.723 10 0 60340 25200.00000 0 -18725038.570 -16450927.149 -5525217.136 10 0 60340 26100.00000 0 -19185021.291 -16688646.678 -2359117.793 10 0 60340 27000.00000 0 -19367531.806 -16632403.010 852666.466 10 0 60340 27900.00000 0 -19234088.066 -16322284.152 4047961.808 10 0 60340 28800.00000 0 -18756751.459 -15806543.078 7164999.461 10 0 60340 29700.00000 0 -17919458.445 -15139385.565 10143594.374 10 0 60340 30600.00000 0 -16718870.342 -14378530.080 12926288.011 10 0 60340 31500.00000 0 -15164707.065 -13582641.876 15459434.860 10 0 60340 32400.00000 0 -13279551.763 -12808747.885 17694213.715 10 0 60340 33300.00000 0 -11098134.556 -12109739.149 19587546.443 10 0 60340 34200.00000 0 -8666124.622 -11532063.463 21102908.687 10 0 60340 35100.00000 0 -6038479.268 -11113702.854 22211018.912 10 0 60340 36000.00000 0 -3277416.280 -10882518.817 22890394.197 10 0 60340 36900.00000 0 -450090.802 -10855033.386 23127763.185 10 0 60340 37800.00000 0 2373930.215 -11035696.604 22918328.728 10 0 60340 38700.00000 0 5125294.713 -11416671.506 22265874.944 10 0 60340 39600.00000 0 7737487.575 -11978146.966 21182715.601 10 0 60340 40500.00000 0 10149341.933 -12689167.379 19689483.191 10 0 60340 41400.00000 0 12307337.408 -13508947.096 17814760.471 10 0 60340 42300.00000 0 14167590.713 -14388617.336 15594559.013 10 0 60340 43200.00000 0 15697455.841 -15273335.009 13071652.030 10 0 60340 44100.00000 0 16876666.329 -16104667.127 10294771.715 10 0 60340 45000.00000 0 17697970.336 -16823151.974 7317684.289 10 0 60340 45900.00000 0 18167230.095 -17370929.695 4198158.922 10 0 60340 46800.00000 0 18302979.545 -17694330.795 996849.432 10 0 60340 47700.00000 0 18135456.959 -17746311.664 -2223889.718 10 0 60340 48600.00000 0 17705152.048 -17488631.706 -5401229.568 10 0 60340 49500.00000 0 17060928.278 -16893676.867 -8473109.744 10 0 60340 50400.00000 0 16257799.978 -15945848.960 -11379472.309 10 0 60340 51300.00000 0 15354459.362 -14642458.557 -14063459.968 10 0 60340 52200.00000 0 14410659.875 -12994080.579 -16472552.723 10 0 60340 53100.00000 0 13484568.959 -11024355.047 -18559618.242 10 0 60340 54000.00000 0 12630204.810 -8769239.673 -20283853.225 10 0 60340 54900.00000 0 11895068.055 -6275744.887 -21611595.587 10 0 60340 55800.00000 0 11318070.611 -3600204.525 -22516990.314 10 0 60340 56700.00000 0 10927850.792 -806155.448 -22982495.418 10 0 60340 57600.00000 0 10741546.501 2038083.868 -22999218.109 10 0 60340 58500.00000 0 10764078.204 4862032.978 -22567075.225 10 0 60340 59400.00000 0 10987970.920 7595756.534 -21694775.908 10 0 60340 60300.00000 0 11393721.001 10172544.738 -20399628.354 10 0 60340 61200.00000 0 11950690.005 12531454.879 -18707176.201 10 0 60340 62100.00000 0 12618485.331 14619608.270 -16650673.571 10 0 60340 63000.00000 0 13348766.818 16394147.954 -14270410.966 10 0 60340 63900.00000 0 14087400.669 17823777.441 -11612907.043 10 0 60340 64800.00000 0 14776867.884 18889818.974 -8729983.746 10 0 60340 65700.00000 0 15358824.273 19586750.419 -5677744.206 10 0 60340 66600.00000 0 15776703.405 19922201.899 -2515474.417 10 0 60340 67500.00000 0 15978252.851 19916415.930 695509.296 10 0 60340 68400.00000 0 15917897.587 19601197.047 3893044.464 10 0 60340 69300.00000 0 15558832.313 19018397.698 7015315.623 10 0 60340 70200.00000 0 14874756.274 18218005.953 10002034.130 10 0 60340 71100.00000 0 13851179.395 17255916.287 12795583.123 10 0 60340 72000.00000 0 12486246.383 16191477.094 15342107.179 10 0 60340 72900.00000 0 10791045.382 15084916.975 17592527.630 10 0 60340 73800.00000 0 8789388.628 13994756.128 19503466.199 10 0 60340 74700.00000 0 6517073.884 12975309.230 21038061.266 10 0 60340 75600.00000 0 4020656.151 12074382.087 22166663.134 10 0 60340 76500.00000 0 1355778.643 11331256.194 22867396.553 10 0 60340 77400.00000 0 -1414870.418 10775043.735 23126580.846 10 0 60340 78300.00000 0 -4223893.681 10423480.607 22939000.054 10 0 60340 79200.00000 0 -7001719.865 10282207.584 22308017.713 10 0 60340 80100.00000 0 -9679236.501 10344570.214 21245533.072 10 0 60340 81000.00000 0 -12190414.069 10591947.169 19771777.992 10 0 60340 81900.00000 0 -14474814.891 10994595.351 17914956.171 10 0 60340 82800.00000 0 -16479884.017 11512978.776 15710729.113 10 0 60340 83700.00000 0 -18162927.214 12099528.058 13201555.955 10 0 60340 84600.00000 0 -19492693.183 12700758.856 10435897.214 10 0 60340 85500.00000 0 -20450492.575 13259661.926 7467295.540 10 0 60341 0.00000 0 -21030805.089 13718264.937 4353349.731 10 0 60341 900.00000 0 -21241347.235 14020258.119 1154599.099 10 0 60341 1800.00000 0 -21102595.064 14113571.116 -2066656.198 10 0 60341 2700.00000 0 -20646781.214 13952790.809 -5247580.960 10 0 60341 3600.00000 0 -19916406.502 13501314.294 -8326047.603 10 0 60341 4500.00000 0 -18962328.889 12733142.790 -11241871.144 10 0 60341 5400.00000 0 -17841510.974 11634236.941 -13938009.816 10 0 60341 6300.00000 0 -16614522.491 10203372.771 -16361705.387 10 0 60341 7200.00000 0 -15342905.326 8452459.186 -18465538.334 10 0 60341 8100.00000 0 -14086514.748 6406301.349 -20208375.082 10 0 60341 9000.00000 0 -12900951.600 4101818.440 -21556186.949 10 0 60341 9900.00000 0 -11835196.088 1586748.188 -22482723.548 10 0 60341 10800.00000 0 -10929544.714 -1082107.185 -22970026.835 10 0 60341 11700.00000 0 -10213938.346 -3841019.197 -23008775.771 10 0 60341 12600.00000 0 -9706751.986 -6621764.672 -22598455.421 10 0 60341 13500.00000 0 -9414096.461 -9354247.543 -21747348.298 10 0 60341 14400.00000 0 -9329659.753 -11969200.134 -20472349.590 10 0 60341 15300.00000 0 -9435092.379 -14400850.261 -18798611.659 10 0 60341 16200.00000 0 -9700917.713 -16589442.652 -16759026.678 10 0 60341 17100.00000 0 -10087925.913 -18483510.015 -14393559.437 10 0 60341 18000.00000 0 -10548989.743 -20041800.297 -11748445.262 10 0 60341 18900.00000 0 -11031223.107 -21234781.799 -8875270.361 10 0 60341 19800.00000 0 -11478389.206 -22045666.050 -5829953.961 10 0 60341 20700.00000 0 -11833455.385 -22470908.879 -2671653.162 10 0 60341 21600.00000 0 -12041186.312 -22520172.154 538387.490 10 0 60341 22500.00000 0 -12050666.335 -22215751.108 3738019.215 10 0 60341 23400.00000 0 -11817645.541 -21591494.171 6865382.231 10 0 60341 24300.00000 0 -11306612.054 -20691262.886 9860086.726 10 0 60341 25200.00000 0 -10492504.965 -19566997.896 12664359.970 10 0 60341 26100.00000 0 -9361997.500 -18276472.585 15224139.078 10 0 60341 27000.00000 0 -7914297.856 -16880828.048 17490090.301 10 0 60341 27900.00000 0 -6161434.872 -15441991.297 19418537.444 10 0 60341 28800.00000 0 -4128016.580 -14020082.814 20972283.642 10 0 60341 29700.00000 0 -1850470.804 -12670919.462 22121312.760 10 0 60341 30600.00000 0 624202.309 -11443714.635 22843358.616 10 0 60341 31500.00000 0 3240116.500 -10379069.456 23124332.233 10 0 60341 32400.00000 0 5934557.454 -9507337.081 22958599.479 10 0 60341 33300.00000 0 8640330.806 -8847427.338 22349103.557 10 0 60341 34200.00000 0 11288306.202 -8406101.373 21307329.066 10 0 60341 35100.00000 0 13810055.151 -8177786.374 19853106.725 10 0 60341 36000.00000 0 16140475.863 -8144919.514 18014260.302 10 0 60341 36900.00000 0 18220297.855 -8278808.648 15826099.985 10 0 60341 37800.00000 0 19998363.029 -8540975.950 13330769.197 10 0 60341 38700.00000 0 21433588.053 -8884930.282 10576454.767 10 0 60341 39600.00000 0 22496525.033 -9258295.627 7616473.375 10 0 60341 40500.00000 0 23170453.397 -9605207.143 4508250.124 10 0 60341 41400.00000 0 23451954.940 -9868874.094 1312207.890 10 0 60341 42300.00000 0 23350945.438 -9994200.742 -1909411.271 10 0 60341 43200.00000 0 22890159.250 -9930352.715 -5093769.270 10 0 60341 44100.00000 0 22104106.837 -9633157.738 -8178674.624 10 0 60341 45000.00000 0 21037548.150 -9067235.908 -11103818.462 10 0 60341 45900.00000 0 19743546.093 -8207765.822 -13811977.470 10 0 60341 46800.00000 0 18281182.928 -7041808.254 -16250157.796 10 0 60341 47700.00000 0 16713037.480 -5569128.135 -18370655.007 10 0 60341 48600.00000 0 15102531.620 -3802477.462 -20132007.172 10 0 60341 49500.00000 0 13511260.239 -1767325.187 -21499820.572 10 0 60341 50400.00000 0 11996419.537 498955.546 -22447450.622 10 0 60341 51300.00000 0 10608443.848 2948408.924 -22956524.013 10 0 60341 52200.00000 0 9388951.737 5524270.767 -23017291.851 10 0 60341 53100.00000 0 8369088.245 8163120.148 -22628807.432 10 0 60341 54000.00000 0 7568332.502 10797316.883 -21798926.257 10 0 60341 54900.00000 0 6993819.409 13357621.611 -20544129.751 10 0 60341 55800.00000 0 6640201.694 15775887.736 -18889177.894 10 0 60341 56700.00000 0 6490055.229 17987712.128 -16866599.465 10 0 60341 57600.00000 0 6514807.302 19934933.855 -14516031.790 10 0 60341 58500.00000 0 6676145.387 21567877.265 -11883424.800 10 0 60341 59400.00000 0 6927843.887 22847247.202 -9020126.628 10 0 60341 60300.00000 0 7217929.138 23745599.360 -5981870.004 10 0 60341 61200.00000 0 7491089.303 24248327.010 -2827680.352 10 0 60341 62100.00000 0 7691226.243 24354125.920 381272.500 10 0 60341 63000.00000 0 7764041.282 24074921.179 3582856.444 10 0 60341 63900.00000 0 7659546.175 23435261.911 6715170.353 10 0 60341 64800.00000 0 7334394.399 22471211.729 9717726.112 10 0 60341 65700.00000 0 6753936.062 21228783.103 12532597.842 10 0 60341 66600.00000 0 5893911.513 19761982.090 15105517.704 10 0 60341 67500.00000 0 4741714.012 18130545.174 17386899.157 10 0 60341 68400.00000 0 3297169.496 16397461.866 19332770.134 10 0 60341 69300.00000 0 1572801.235 14626384.868 20905600.305 10 0 60341 70200.00000 0 -406432.126 12879033.614 22075008.602 10 0 60341 71100.00000 0 -2603915.529 11212696.905 22818339.097 10 0 60341 72000.00000 0 -4972643.176 9677936.236 23121095.350 10 0 60341 72900.00000 0 -7456921.156 8316583.245 22977225.480 10 0 60341 73800.00000 0 -9994439.687 7160113.068 22389252.322 10 0 60341 74700.00000 0 -12518632.468 6228460.480 21368245.294 10 0 60341 75600.00000 0 -14961228.651 5529328.078 19933632.915 10 0 60341 76500.00000 0 -17254894.464 5058016.138 18112857.433 10 0 60341 77400.00000 0 -19335856.912 4797782.633 15940875.642 10 0 60341 78300.00000 0 -21146401.728 4720720.229 13459512.751 10 0 60341 79200.00000 0 -22637141.781 4789115.496 10716679.060 10 0 60341 80100.00000 0 -23768960.433 4957235.149 7765462.210 10 0 60341 81000.00000 0 -24514546.993 5173465.515 4663110.708 10 0 60341 81900.00000 0 -24859457.596 5382715.778 1469927.228 10 0 60341 82800.00000 0 -24802654.319 5528983.255 -1751907.156 10 0 60341 83700.00000 0 -24356497.234 5557971.139 -4939554.510 10 0 60341 84600.00000 0 -23546187.400 5419645.774 -8030762.364 10 0 60341 85500.00000 0 -22408682.540 5070622.389 -10965100.700 99